Location: Molino di Ancona
(43.6167°N, 13.3667°E)
Time: 17:05:53
(UTC+00:00)

CENTAUR R/B - Pass Details

Date: 15 December 2019
Orbit: 773 x 1415 km, 63.4° (Epoch: 16 January)

Event Time Altitude Azimuth Distance (km) Brightness Sun altitude
Rises 05:38:27 0° 213° (SSW) 3,391 5.2 -9.5°
Reaches altitude 10° 05:40:45 10° 213° (SSW) 2,521 4.6 -9.1°
Maximum altitude 05:46:37 87° 127° (SE) 978 2.6 -8.2°
Drops below altitude 10° 05:53:34 10° 37° (NE) 2,963 5.2 -7.0°
Sets 05:56:28 0° 38° (NE) 4,026 5.9 -6.6°
